Regional Weather Roundup
Issued by NWS Glasgow, MT

Home | Current Version | Previous Version | Text Only | Print | Product List | Glossary On
Versions: 1 2 3 4 5 6 7 8 9 10 11 12 13 14 15 16 17 18 19 20 21 22 23 24 25 26 27 28 29 30 31 32 33 34 35 36 37 38 39 40 41 42 43 44 45 46 47 48 49 50
000
ASUS45 KGGW 280515
RWRGGW
HOURLY REGIONAL WEATHER ROUNDUP FOR NORTHEAST MONTANA
NATIONAL WEATHER SERVICE GLASGOW MONTANA
1100 PM MDT FRI MAY 27 2016

NOTE: "FAIR" INDICATES FEW OR NO CLOUDS BELOW 12,000 FEET WITH NO
SIGNIFICANT WEATHER AND/OR OBSTRUCTIONS TO VISISBILITY.

NORTHEAST MONTANA


CITY           SKY/WX    TMP DP  RH WIND       PRES   REMARKS
GLASGOW        CLOUDY    58  50  75 E12       29.83F
PLENTYWOOD       N/A     54  52  93 E9G18       N/A
WOLF POINT     CLEAR     54  49  83 NE6       29.85S
JORDAN           N/A     50  47  89 CALM      29.84S
WINNETT          N/A     51  47  86 W6G20       N/A
SIDNEY         CLOUDY    55  52  89 NE5       29.85S
GLENDIVE       PTCLDY    57  48  72 NE7       29.87R
OPHEIM           N/A     50  48  93 E6        29.69F

FORT PECK REPORTS


CITY           SKY/WX    TMP DP  RH WIND       PRES   REMARKS
FORT PECK        N/A     58  52  80 NE12        N/A
THE PINES        N/A     57  51  80 NE6         N/A

SOUTHEAST MONTANA


CITY           SKY/WX    TMP DP  RH WIND       PRES   REMARKS
BILLINGS       CLOUDY    52  48  86 W5        29.90R
MILES CITY     CLOUDY    58  49  72 CALM      29.84R
BAKER          CLEAR     51  44  77 CALM      29.85S
LIVINGSTON     LGT RAIN  48  44  86 SW8       29.97R

CENTRAL MONTANA


CITY           SKY/WX    TMP DP  RH WIND       PRES   REMARKS
HAVRE          LGT RAIN  53  51  93 SW8       29.87R
LEWISTOWN      LGT RAIN  49  45  86 SW7       29.93R
GREAT FALLS    CLOUDY    51  44  77 SE3       29.93S
CUT BANK       PTCLDY    46  32  58 W14       29.92R
HELENA         CLOUDY    51  39  63 NW7       29.95R
BUTTE          CLOUDY    41  38  89 SE6       30.01R
BOZEMAN        CLOUDY    48  44  86 S7        29.99R

WESTERN MONTANA


CITY           SKY/WX    TMP DP  RH WIND       PRES   REMARKS
MISSOULA       MOCLDY    44  36  73 W5        30.02R
KALISPELL      NOT AVBL

NORTH DAKOTA


CITY           SKY/WX    TMP DP  RH WIND       PRES   REMARKS
WILLISTON      PTCLDY    57  52  83 NE6       29.87R
DICKINSON      CLEAR     51  45  79 NE7       29.83F
MINOT          CLOUDY    59  54  83 NE9       29.87S
BISMARCK       PTCLDY    57  50  77 NE7       29.82S

SOUTHERN SASKATCHEWAN


CITY           SKY/WX    TMP DP  RH WIND       PRES   REMARKS
REGINA         PTCLDY    57  50  77 E13G18    29.92R
MOOSE JAW      MOCLDY    54  52  94 CALM      29.90S
ESTEVAN        CLOUDY    54  52  94 SE10      29.90S
SWIFT CURRENT  CLOUDY    55  48  76 SE10      29.86S




USA.gov is the U.S. government's official web portal to all federal, state and local government web resources and services.